Regional Weather Roundup
Issued by NWS

Home | Current Version | Previous Version | Graphics & Text | Print | Product List | Glossary On
Versions: 1 2 3 4 5 6 7 8 9 10 11 12 13 14 15 16 17 18 19 20 21 22 23 24 25 26 27 28 29 30 31 32 33 34 35 36 37 38 39 40 41 42 43 44 45 46 47 48 49 50
000
ASUS43 KDMX 230406
RWRIA

WEATHER ROUNDUP FOR IOWA
NATIONAL WEATHER SERVICE DES MOINES IA
1100 PM CDT SUN APR 22 2018

NOTE: "FAIR" INDICATES FEW OR NO CLOUDS BELOW 12,000 FEET WITH NO
SIGNIFICANT WEATHER AND/OR OBSTRUCTIONS TO VISIBILITY.

* - THESE STATIONS ARE NOT NWS STATIONS...THUS NOT UNDER NWS
QUALITY CONTROL.  THEY ALSO DO NOT REPORT WEATHER SUCH
AS PRECIPITATION OR FOG.

IAZ001>003-012>014-020>022-031>034-043>046-230500-
   NORTHWEST IOWA

CITY           SKY/WX    TMP DP  RH WIND       PRES   REMARKS
CARROLL *      CLEAR     46  30  53 CALM      30.20S
CHEROKEE *     CLOUDY    49  41  76 E6        30.21F
DENISON *      CLEAR     46  28  49 CALM      30.21S
LE MARS *      CLEAR     45  41  87 N5        30.21S
ORANGE CITY *  CLEAR     46  43  87 E7        30.22S
SHELDON *      CLEAR     41  39  93 NE9       30.21S
SIOUX CITY     CLEAR     50  40  68 E10       30.20S
SPENCER        CLOUDY    43  37  79 N5        30.22F
STORM LAKE *   CLEAR     46  41  81 E10       30.21S
$$

IAZ055>058-069>071-079>083-090>094-230500-
   SOUTHWEST IOWA

CITY           SKY/WX    TMP DP  RH WIND       PRES   REMARKS
ATLANTIC *     CLEAR     45  30  57 N7        30.18R
AUDUBON *      CLEAR     41  28  60 CALM      30.20S
CLARINDA *     CLEAR     55  28  35 E6        30.18R
COUNCIL BLFS * CLEAR     55  30  38 E9        30.17R
CRESTON *      CLOUDY    50  25  37 E12       30.18R
HARLAN  *      CLEAR     48  30  49 N5        30.21S
LAMONI         PTCLDY    57  28  33 E6        30.15S
RED OAK *      CLEAR     50  30  46 NE6       30.16S
SHENANDOAH *   CLEAR     48  32  53 NE8       30.16S
$$

IAZ047>049-059>061-072>074-084-230500-
   CENTRAL IOWA

CITY           SKY/WX    TMP DP  RH WIND       PRES   REMARKS
AMES           CLOUDY    53  32  44 E6        30.19F
ANKENY *       PTCLDY    52  32  46 NE6       30.19F
BOONE *        PTCLDY    48  34  57 E9        30.19S
CHARITON *     CLOUDY    54  27  35 E7        30.17S
DES MOINES     PTCLDY    57  28  33 E6        30.18F
GRINNELL*      CLOUDY    53  33  45 E8        30.20S
KNOXVILLE *    MOCLDY    55  28  35 E7        30.17S
MARSHALLTOWN   CLOUDY    49  37  63 E7        30.19F
NEWTON *       CLOUDY    54  32  43 E7        30.18F
PELLA *        CLOUDY    55  29  36 E6        30.19S
PERRY *        FAIR      51  25  36 E7        30.19R
$$

IAZ004>006-015-016-023>025-035-036-230500-
   NORTH CENTRAL IOWA

CITY           SKY/WX    TMP DP  RH WIND       PRES   REMARKS
ALGONA *       CLEAR     50  39  66 E7G14     30.22F
CLARION *      PTCLDY    45  39  81 E12       30.21F
ESTHERVILLE    CLEAR     38  34  85 N7        30.23S WCI  33
FORT DODGE *   CLEAR     47  40  76 NE5       30.21S
MASON CITY     PTCLDY    43  37  79 NE5       30.24S
FOREST CITY *  FAIR      46  37  71 NE3       30.22F
WEBSTER CITY * CLEAR     48  36  61 E5        30.19S
IOWA FALLS *   FAIR      50  35  57 E3        30.22S
$$

IAZ007>011-017>019-026>030-037>042-050>054-066-230500-
   NORTHEAST IOWA

CITY           SKY/WX    TMP DP  RH WIND       PRES   REMARKS
CEDAR RAPIDS   FAIR      52  31  44 E12       30.18F
CHARLES CITY * FAIR      48  34  57 E8        30.23F
DECORAH *      MOCLDY    50  27  40 E8        30.23F
DUBUQUE        FAIR      49  28  44 E9        30.23F
MONTICELLO *   FAIR      50  32  50 E7        30.21F
OELWEIN *      FAIR      48  36  61 E8        30.22F
WATERLOO       FAIR      44  35  70 E7        30.20F
$$

IAZ064-065-067-068-078-230500-
   EAST CENTRAL IOWA

CITY           SKY/WX    TMP DP  RH WIND       PRES   REMARKS
DAVENPORT      FAIR      51  26  37 E10       30.22F
IOWA CITY      FAIR      55  28  35 E6        30.21R
MT. PLEASANT * CLOUDY    52  28  40 NE10      30.17S
MUSCATINE *    FAIR      54  27  35 NE6       30.20S
QUAD CITIES    FAIR      55  27  34 E15       30.19S
$$

IAZ062-063-075>077-085>089-095>099-230500-
   SOUTHEAST IOWA

CITY           SKY/WX    TMP DP  RH WIND       PRES   REMARKS
BURLINGTON     CLOUDY    56  28  34 NE13      30.16S
FAIRFIELD *    CLOUDY    54  30  40 NE10      30.17R
FORT MADISON * CLOUDY    57  30  35 NE13      30.16S
KEOKUK *       CLOUDY    59  30  33 NE9       30.14S
OSKALOOSA *    CLOUDY    55  30  38 E13       30.18S
CENTERVILLE *    N/A     54  23  30 CALM      30.17S
OTTUMWA        PTCLDY    53  30  41 NE8       30.17S
WASHINGTON *   MOCLDY    52  30  43 NE12      30.19S
$$

ABBREVIATIONS USED IN REMARKS
   TC - TEMPERATURES IN CELSIUS
  WCI - WIND CHILL INDEX
   HX - HEAT INDEX
  VSB - VISIBILITY
$$





USA.gov is the U.S. government's official web portal to all federal, state and local government web resources and services.